Regional Weather Roundup
Issued by NWS

Home | Current Version | Previous Version | Graphics & Text | Print | Product List | Glossary On
Versions: 1 2 3 4 5 6 7 8 9 10 11 12 13 14 15 16 17 18 19 20 21 22 23 24 25 26 27 28 29 30 31 32 33 34 35 36 37 38 39 40 41 42 43 44 45 46 47 48 49 50
000
ASUS45 KPSR 221810
RWRAZ

ARIZONA REGIONAL HOURLY WEATHER ROUNDUP
NATIONAL WEATHER SERVICE PHOENIX AZ
1100 AM MST MON DEC 22 2014

NOTE: FAIR INDICATES FEW OR NO CLOUDS BELOW 12,000 FEET WITH NO
SIGNIFICANT WEATHER AND/OR OBSTRUCTIONS TO VISIBILITY.

AZZ001>003-036-221900-
NORTHWEST ARIZONA

CITY           SKY/WX    TMP DP  RH WIND       PRES   REMARKS
BULLHEAD CITY  SUNNY     55  45  67 N3        30.08S
KINGMAN        SUNNY     61  37  41 CALM      30.10S
6HR MIN TEMP:  33; 6HR MAX TEMP:  61;

$$

AZZ004>008-015-016-018-221900-
NORTH CENTRAL ARIZONA

CITY           SKY/WX    TMP DP  RH WIND       PRES   REMARKS
GRAND CANYON   SUNNY     48  34  58 N13G18    30.09S
6HR MIN TEMP:  22; 6HR MAX TEMP:  48;

PRESCOTT       SUNNY     56  33  42 NW14      30.09F
6HR MIN TEMP:  37; 6HR MAX TEMP:  56;

FLAGSTAFF      SUNNY     50  32  50 SW10      30.10R
6HR MIN TEMP:  39; 6HR MAX TEMP:  51;

PAYSON         SUNNY     50  37  62 W8        30.06F
PAGE           SUNNY     51  35  54 SE3       29.94F
6HR MIN TEMP:  37; 6HR MAX TEMP:  52;

$$

AZZ009>014-017-221900-
NORTHEAST ARIZONA

CITY           SKY/WX    TMP DP  RH WIND       PRES   REMARKS
WINSLOW        SUNNY     52  37  56 CALM      30.02F
6HR MIN TEMP:  28; 6HR MAX TEMP:  53;

SAINT JOHNS    SUNNY     52  35  52 W12       29.99F
6HR MIN TEMP:  32; 6HR MAX TEMP:  52;

WINDOW ROCK    SUNNY     49  33  54 NW17      29.98F
6HR MIN TEMP:  26; 6HR MAX TEMP:  49;

SHOW LOW       SUNNY     50  30  46 CALM      30.06F
$$

AZZ023-221900-
GREATER PHOENIX AREA

CITY           SKY/WX    TMP DP  RH WIND       PRES   REMARKS
PHOENIX        SUNNY     58  42  55 E3        30.03F
6HR MIN TEMP:  47; 6HR MAX TEMP:  58;

BUCKEYE          N/A     55  46  71 CALM      30.05S
GLENDALE       SUNNY     55  45  67 CALM      30.06S
DEER VALLEY    SUNNY     56  41  57 S3        30.03S
6HR MIN TEMP:  43; 6HR MAX TEMP:  56;

SCOTTSDALE     SUNNY     56  41  57 CALM      30.05F
6HR MIN TEMP:  45; 6HR MAX TEMP:  56;

MESA-FALCON    SUNNY     55  39  54 VRB5      30.03F
MESA-GATEWAY   MOSUNNY   55  43  62 SE5       30.06R
CHANDLER       SUNNY     55  45  67 CALM      30.05F
$$

AZZ027-028-221900-
SOUTHWEST MARICOPA COUNTY AND PINAL COUNTY

CITY           SKY/WX    TMP DP  RH WIND       PRES   REMARKS
CASA GRANDE    SUNNY     54  43  66 MISG      30.05S
6HR MIN TEMP:  39; 6HR MAX TEMP:  54;

$$

AZZ503-504-507>509-221900-
SOUTHEAST ARIZONA

CITY           SKY/WX    TMP DP  RH WIND       PRES   REMARKS
TUCSON         SUNNY     55  39  54 CALM      30.06S
6HR MIN TEMP:  41; 6HR MAX TEMP:  55;

RYAN FIELD       N/A     59  43  55 NE3       30.06R
NOGALES        SUNNY     58  35  42 S6        30.04F
6HR MIN TEMP:  34; 6HR MAX TEMP:  58;

DOUGLAS        SUNNY     56  34  43 CALM      30.04F
6HR MIN TEMP:  29; 6HR MAX TEMP:  56;

SAFFORD        SUNNY     50  37  61 CALM      30.00F
6HR MIN TEMP:  37; 6HR MAX TEMP:  51;

$$

AZZ020-021-025-026-031-221900-
SOUTHWEST ARIZONA

CITY           SKY/WX    TMP DP  RH WIND       PRES   REMARKS
YUMA           SUNNY    N/A N/A N/A NE3       30.04S
$$

CAZ031-033-041-043-047-048-061-221900-
SOUTHERN CALIFORNIA

CITY           SKY/WX    TMP DP  RH WIND       PRES   REMARKS
DOWNTOWN L.A.  SUNNY     65  51  60 CALM      30.05S
6HR MIN TEMP:  50; 6HR MAX TEMP:  65;

L.A. AIRPORT   MOSUNNY   62  51  67 SE3       30.06S
6HR MIN TEMP:  50; 6HR MAX TEMP:  62;

SAN DIEGO      SUNNY     66  51  58 NW5       30.06S
6HR MIN TEMP:  53; 6HR MAX TEMP:  66;

BURBANK        SUNNY     66  47  50 CALM      30.06R
6HR MIN TEMP:  49; 6HR MAX TEMP:  66;

ONTARIO        SUNNY     61  48  62 SW5       30.06S
6HR MIN TEMP:  47; 6HR MAX TEMP:  63;

RIVERSIDE      SUNNY     62  48  60 CALM      30.06S
6HR MIN TEMP:  47; 6HR MAX TEMP:  62;

PALM SPRINGS   SUNNY     65  45  48 S3        30.05S
6HR MIN TEMP:  48; 6HR MAX TEMP:  65;

EL CENTRO NAS  SUNNY     62  48  60 CALM      30.03F
6HR MIN TEMP:  43; 6HR MAX TEMP:  62;

IMPERIAL       SUNNY     60  47  61 CALM      30.03F
6HR MIN TEMP:  45; 6HR MAX TEMP:  60;

BLYTHE         SUNNY     57  46  66 E3        30.06S
6HR MIN TEMP:  45; 6HR MAX TEMP:  57;

NEEDLES        SUNNY     61  41  47 NE5       30.06S
6HR MIN TEMP:  46; 6HR MAX TEMP:  61;

$$

NVZ020-UTZ003-221900-
SOUTHERN NEVADA-UTAH

CITY           SKY/WX    TMP DP  RH WIND       PRES   REMARKS
LAS VEGAS      SUNNY     57  41  55 SE6       30.04S
SALT LAKE CITY CLOUDY    41  38  89 NE8       29.97F
6HR MIN TEMP:  38; 6HR MAX TEMP:  41; 6HR PCP:  0.22;

$$

NMZ009-TXZ055-221900-
NEW MEXICO-WEST TEXAS

CITY           SKY/WX    TMP DP  RH WIND       PRES   REMARKS
ALBUQUERQUE    MOSUNNY   53  33  46 SW7       29.87F
6HR MIN TEMP:  33; 6HR MAX TEMP:  53;

EL PASO        MOSUNNY   61  33  35 VRB6      29.90F
6HR MIN TEMP:  48; 6HR MAX TEMP:  62;

$$


........................KEY........................
SKY/WX - SKY CONDITION/WEATHER
TMP    - TEMPERATURE IN FAHRENHEIT
DP     - DEW POINT IN FAHRENHEIT
RH     - RELATIVE HUMIDITY IN PERCENT
WIND   - DIRECTION AND SPEED IN MILES PER HOUR (MPH)
VRB    - VARIABLE WIND DIRECTION
PRES   - MEAN SEA LEVEL PRESSURE IN INCHES OF MERCURY
         F - FALLING PRESSURE   R - RISING PRESSURE
         S - STEADY PRESSURE
VSB    - VISIBILITY IN MILES
HX     - HEAT INDEX IN FAHRENHEIT
WCI    - WIND CHILL INDEX IN FAHRENHEIT
TC     - TEMPERATURE IN CELSIUS WHICH IS ALSO KNOWN AS
         TEMPERATURE IN CENTIGRADE
AFB    - AIR FORCE BASE
         LUKE AFB IS LUKE AIR FORCE BASE
         DAVIS-MONTHAN IS DAVIS-MONTHAN AIR FORCE BASE
NAS    - NAVAL AIR STATION
         EL CENTRO NAS IS EL CENTRO NAVAL AIR STATION
N/A    - NOT AVAILABLE


USA.gov is the U.S. government's official web portal to all federal, state and local government web resources and services.